Change the Weather History Date:

Sunday, October 6, 2013

  Actual Average (KVPZ) Record (KVPZ)
Temperature  
Mean Temperature 54 °F 56 °F  
Max Temperature 65 °F 67 °F 88 °F (2007)
Min Temperature 43 °F 45 °F 32 °F (2003)
Degree Days  
Heating Degree Days 11 10  
Month to date heating degree days 57  
Since 1 July heating degree days 187  
Cooling Degree Days 0 1  
Month to date cooling degree days 6  
Year to date cooling degree days 708  
Growing Degree Days 4 (Base 50)    
Moisture  
Dew Point 50 °F    
Average Humidity 83    
Maximum Humidity 100    
Minimum Humidity 51    
Precipitation  
Precipitation 0.21 in 0.10 in 0.25 in (2013)
Month to date precipitation 0.59  
Year to date precipitation 29.34  
Sea Level Pressure  
Sea Level Pressure 29.77 in    
Wind  
Wind Speed 7 mph (WSW)    
Max Wind Speed 17 mph    
Max Gust Speed 24 mph    
Visibility 8 miles    
Events Rain    
T = Trace of Precipitation, MM = Missing Value Source: NWS Daily Summary

Daily Weather History Graph

Daily Weather History Graph

Search for Another Location

Airport or City:

Trip Planner

Search our weather history database for the weather conditions in past years. The results will help you decide how hot, cold, wet, or windy it might be!

Date:

Astronomy

Oct. 06, 2013 Rise Set
Actual Time 6:49 AM CDT 6:19 PM CDT
Civil Twilight 6:21 AM CDT 6:47 PM CDT
Nautical Twilight 5:49 AM CDT 7:19 PM CDT
Astronomical Twilight 5:17 AM CDT 7:51 PM CDT
Moon 8:35 AM CDT 7:16 PM CDT
Length of Visible Light 12h 25m
Length of Day
11h 30m
Waxing Crescent, 3% of the Moon is Illuminated
Oct 6
Waxing Crescent
Oct 11
First Quarter
Oct 18
Full
Oct 26
Last Quarter
Nov 3
New

Hourly Weather History & Observations

Time (CDT) Temp. Windchill Dew Point Humidity Pressure Visibility Wind Dir Wind Speed Gust Speed Precip Events Conditions
12:15 AM 65.3 °F - 65.3 °F 100% 29.79 in 4.0 mi SSE 6.9 mph - N/A   Overcast
12:35 AM 65.3 °F - 65.3 °F 100% 29.80 in 2.5 mi South 8.1 mph - N/A   Overcast
12:55 AM 65.3 °F - 65.3 °F 100% 29.80 in 2.0 mi SSW 6.9 mph - N/A   Overcast
1:15 AM 65.3 °F - 65.3 °F 100% 29.80 in 2.5 mi South 6.9 mph - N/A   Overcast
1:35 AM 65.5 °F - 65.5 °F 100% 29.80 in 3.0 mi SSW 6.9 mph - N/A   Overcast
2:15 AM 65.3 °F - 65.3 °F 100% 29.79 in 4.0 mi South 9.2 mph - N/A   Overcast
2:35 AM 65.3 °F - 65.3 °F 100% 29.79 in 4.0 mi South 8.1 mph - N/A   Overcast
2:55 AM 64.9 °F - 64.9 °F 100% 29.77 in 3.0 mi South 6.9 mph - N/A   Overcast
3:15 AM 64.9 °F - 64.9 °F 100% 29.77 in 4.0 mi South 9.2 mph - 0.01 in Rain Light Rain
3:35 AM 64.9 °F - 64.9 °F 100% 29.76 in 4.0 mi South 6.9 mph - 0.01 in   Overcast
3:55 AM 64.9 °F - 64.9 °F 100% 29.77 in 5.0 mi South 8.1 mph - 0.01 in   Overcast
4:15 AM 65.3 °F - 65.3 °F 100% 29.78 in 5.0 mi SSW 12.7 mph - N/A Rain Light Rain
4:35 AM 62.1 °F - 61.7 °F 99% 29.78 in 7.0 mi WNW 6.9 mph 20.7 mph N/A   Overcast
4:55 AM 59.2 °F - 59.2 °F 100% 29.78 in 5.0 mi NW 10.4 mph - N/A Rain Rain
5:15 AM 58.1 °F - 58.1 °F 100% 29.79 in 4.0 mi West 6.9 mph - 0.01 in   Drizzle
5:35 AM 56.5 °F - 56.5 °F 100% 29.81 in 3.0 mi West 11.5 mph 16.1 mph 0.01 in Rain Rain
5:55 AM 54.9 °F - 54.7 °F 99% 29.80 in 2.5 mi West 6.9 mph - 0.01 in   Drizzle
6:15 AM 54.5 °F - 54.3 °F 99% 29.79 in 3.0 mi West 5.8 mph - N/A   Drizzle
6:35 AM 54.5 °F - 54.5 °F 100% 29.79 in 7.0 mi WNW 4.6 mph - N/A   Overcast
6:55 AM 54.1 °F - 53.4 °F 97% 29.78 in 10.0 mi WNW 3.5 mph - N/A Rain Light Rain
7:15 AM 54.3 °F - 52.7 °F 94% 29.79 in 7.0 mi WSW 5.8 mph - N/A Rain Heavy Rain
7:35 AM 53.8 °F - 53.2 °F 98% 29.78 in 4.0 mi West 3.5 mph - 0.02 in Rain Light Rain
7:55 AM 53.8 °F - 53.2 °F 98% 29.79 in 5.0 mi West 5.8 mph - 0.02 in   Drizzle
8:15 AM 53.6 °F - 53.1 °F 98% 29.78 in 4.0 mi WNW 4.6 mph - 0.02 in Rain Rain
8:35 AM 53.6 °F - 53.1 °F 98% 29.80 in 3.0 mi WSW 8.1 mph - 0.03 in Rain Rain
8:55 AM 53.1 °F - 52.9 °F 99% 29.78 in 3.0 mi WSW 5.8 mph - 0.10 in Rain Rain
9:15 AM 52.2 °F - 51.8 °F 99% 29.79 in 5.0 mi WSW 8.1 mph - N/A   Drizzle
9:35 AM 51.4 °F - 50.5 °F 97% 29.78 in 5.0 mi WNW 3.5 mph - 0.04 in Rain Light Rain
9:55 AM 51.3 °F - 49.8 °F 95% 29.79 in 4.0 mi SW 4.6 mph - 0.07 in Rain Rain
10:15 AM 51.1 °F - 49.1 °F 93% 29.79 in 10.0 mi Calm Calm - N/A   Light Drizzle
10:35 AM 51.8 °F - 50.4 °F 95% 29.79 in 10.0 mi SSW 4.6 mph - N/A   Overcast
10:55 AM 52.3 °F - 50.9 °F 95% 29.79 in 10.0 mi SSW 3.5 mph - N/A   Overcast
11:15 AM 52.7 °F - 50.9 °F 94% 29.78 in 10.0 mi SSW 3.5 mph - N/A   Overcast
11:35 AM 53.4 °F - 51.6 °F 94% 29.78 in 10.0 mi SSW 5.8 mph - N/A   Overcast
11:55 AM 54.3 °F - 52.2 °F 92% 29.77 in 10.0 mi South 5.8 mph - N/A   Overcast
12:15 PM 55.4 °F - 52.0 °F 88% 29.77 in 10.0 mi SW 8.1 mph - N/A   Overcast
12:35 PM 58.1 °F - 51.1 °F 77% 29.76 in 10.0 mi West 5.8 mph - N/A   Mostly Cloudy
12:55 PM 57.9 °F - 48.6 °F 71% 29.74 in 10.0 mi SW 5.8 mph - N/A   Mostly Cloudy
1:15 PM 57.2 °F - 47.5 °F 70% 29.74 in 10.0 mi West 5.8 mph - N/A   Mostly Cloudy
1:35 PM 59.9 °F - 48.6 °F 66% 29.73 in 10.0 mi WSW 4.6 mph - N/A   Overcast
1:55 PM 61.7 °F - 46.4 °F 57% 29.72 in 10.0 mi SW 11.5 mph 16.1 mph N/A   Mostly Cloudy
2:15 PM 61.7 °F - 46.0 °F 56% 29.72 in 10.0 mi WSW 12.7 mph - N/A   Scattered Clouds
2:35 PM 61.5 °F - 44.2 °F 53% 29.71 in 10.0 mi SW 12.7 mph 17.3 mph N/A   Scattered Clouds
2:55 PM 61.9 °F - 43.9 °F 52% 29.71 in 10.0 mi SW 9.2 mph 19.6 mph N/A   Scattered Clouds
3:15 PM 60.8 °F - 43.3 °F 53% 29.71 in 10.0 mi WSW 8.1 mph 16.1 mph N/A   Mostly Cloudy
3:35 PM 61.2 °F - 43.0 °F 51% 29.71 in 10.0 mi WSW 10.4 mph - N/A   Overcast
3:55 PM 60.4 °F - 42.1 °F 51% 29.71 in 10.0 mi WSW 9.2 mph - N/A   Overcast
4:15 PM 60.3 °F - 42.4 °F 52% 29.71 in 10.0 mi West 6.9 mph - N/A   Overcast
4:35 PM 59.7 °F - 42.8 °F 54% 29.71 in 10.0 mi West 8.1 mph - N/A   Overcast
4:55 PM 59.0 °F - 42.6 °F 55% 29.72 in 10.0 mi West 10.4 mph - N/A   Overcast
5:15 PM 58.1 °F - 41.5 °F 54% 29.73 in 10.0 mi West 10.4 mph - N/A   Overcast
5:35 PM 57.9 °F - 41.7 °F 55% 29.73 in 10.0 mi WSW 10.4 mph - N/A   Overcast
5:55 PM 57.2 °F - 40.1 °F 53% 29.74 in 10.0 mi West 12.7 mph 24.2 mph N/A   Overcast
6:15 PM 55.4 °F - 40.8 °F 58% 29.75 in 10.0 mi West 17.3 mph 21.9 mph N/A   Overcast
6:35 PM 54.0 °F - 40.6 °F 61% 29.76 in 10.0 mi West 13.8 mph 19.6 mph N/A   Overcast
6:55 PM 53.1 °F - 39.9 °F 61% 29.76 in 10.0 mi WSW 12.7 mph 18.4 mph N/A   Mostly Cloudy
7:15 PM 52.3 °F - 40.1 °F 63% 29.78 in 10.0 mi WSW 12.7 mph - N/A   Mostly Cloudy
7:35 PM 51.4 °F - 39.6 °F 64% - 10.0 mi WSW 12.7 mph 19.6 mph N/A   Mostly Cloudy
7:55 PM 50.2 °F - 39.9 °F 68% 29.79 in 10.0 mi West 12.7 mph 17.3 mph N/A   Mostly Cloudy
8:15 PM 49.1 °F - 39.2 °F 69% 29.79 in 10.0 mi West 11.5 mph - N/A   Scattered Clouds
8:35 PM 47.7 °F - 39.6 °F 73% 29.79 in 10.0 mi WSW 8.1 mph - N/A   Clear
8:55 PM 46.6 °F - 40.1 °F 78% 29.79 in 10.0 mi WSW 4.6 mph - N/A   Clear
9:15 PM 45.5 °F 44.2 °F 39.9 °F 81% 29.79 in 10.0 mi SW 3.5 mph - N/A   Clear
9:35 PM 44.6 °F - 40.5 °F 85% 29.80 in 10.0 mi Calm Calm - N/A   Scattered Clouds
9:55 PM 44.4 °F 42.0 °F 40.5 °F 86% 29.79 in 10.0 mi SW 4.6 mph - N/A   Clear
10:15 PM 44.1 °F 42.5 °F 40.1 °F 86% 29.80 in 10.0 mi WSW 3.5 mph - N/A   Clear
10:35 PM 43.3 °F 40.7 °F 39.6 °F 87% 29.79 in 10.0 mi SW 4.6 mph - N/A   Clear
10:55 PM 43.5 °F 40.9 °F 39.7 °F 87% 29.79 in 10.0 mi SW 4.6 mph - N/A   Scattered Clouds
11:15 PM 43.0 °F 40.3 °F 39.6 °F 88% 29.79 in 10.0 mi WSW 4.6 mph - N/A   Scattered Clouds
11:35 PM 43.0 °F 40.3 °F 39.7 °F 88% 29.79 in 10.0 mi WSW 4.6 mph - N/A   Scattered Clouds
11:55 PM 43.3 °F 39.9 °F 39.4 °F 86% 29.78 in 10.0 mi WSW 5.8 mph - N/A   Clear